Theta_e
317 317 317 318 318 318 318 318 319 319 319 320 320 320 320 321 322 322 323 323 323 323 323 322 322 322 321 321 320 320 318 315 319 325 330 330 325 328 330 327 329 333 337 344 349 354 356 359 360 355 358 365 369 368 362 365 372 371 377 377 362 365 373 370 373 370 365 364 361 364 363 363 369 360 354 360 355 353 355 354 353 351 352 352 354 355 354 355
315 316 316 317 318 317 317 317 318 319 319 319 320 320 320 321 320 321 322 322 323 323 323 322 322 322 321 321 320 319 317 317 324 329 329 325 325 326 330 328 328 334 338 344 349 352 360 365 361 359 366 373 367 363 364 365 369 372 375 375 367 370 374 370 371 367 363 364 362 363 361 359 360 355 357 366 359 352 356 356 355 353 353 353 354 355 354 354
313 314 314 315 316 317 316 315 317 318 318 318 319 320 320 319 320 320 321 322 322 322 322 322 322 322 322 321 320 319 318 321 327 330 325 323 325 325 328 329 328 334 341 348 349 349 358 359 356 362 369 369 363 362 366 366 366 373 374 374 374 372 371 370 371 369 366 364 366 365 359 358 357 356 359 364 360 357 359 358 358 357 354 354 352 353 354 354
314 314 314 314 315 315 315 314 314 316 317 317 318 319 319 319 320 319 320 321 321 322 322 322 322 322 322 321 320 318 319 324 324 323 324 324 326 329 330 330 327 334 343 348 350 351 352 352 353 360 365 366 365 362 368 365 363 371 373 375 373 369 370 372 374 374 369 364 366 369 369 364 356 353 356 361 364 364 362 357 357 357 354 353 353 352 353 353
314 314 314 315 315 315 315 314 313 314 315 316 316 317 318 319 319 320 320 320 320 321 321 322 322 322 322 321 321 318 320 327 326 324 329 328 330 331 332 329 326 332 341 345 350 351 349 353 356 360 359 364 365 363 369 365 365 369 369 373 371 367 369 372 376 375 370 369 368 369 374 365 353 353 352 360 368 365 362 357 355 355 354 354 353 353 353 353
315 315 315 315 315 315 315 314 313 313 314 315 314 315 316 317 318 319 320 320 320 321 321 322 322 322 322 320 321 319 323 329 327 325 327 329 329 329 331 329 326 332 340 344 350 351 351 356 362 367 364 364 367 363 365 361 366 374 366 367 372 373 371 369 374 375 372 376 375 371 371 364 360 360 353 359 363 357 356 355 353 353 353 353 353 353 353 353
315 315 316 316 316 316 316 314 314 313 314 314 314 314 314 315 317 318 319 319 319 320 321 321 321 322 321 321 323 324 328 330 322 325 327 326 327 327 328 328 325 331 337 340 346 348 352 358 362 368 365 364 365 361 367 365 369 381 368 364 375 376 374 370 372 375 374 376 377 373 369 369 372 368 362 360 355 353 355 352 352 352 353 353 352 352 352 352
315 315 316 316 316 316 316 315 315 314 314 314 313 313 313 314 315 316 318 319 319 319 319 320 321 321 321 322 326 329 331 330 321 324 324 322 327 326 327 326 323 330 336 338 341 344 350 357 356 359 361 362 362 363 370 367 367 376 368 365 373 371 372 374 371 375 376 377 377 374 373 375 375 368 366 362 351 353 354 351 352 351 352 352 352 352 352 352
315 315 316 316 316 316 315 315 315 314 315 314 313 313 313 313 313 315 317 318 319 318 319 319 320 321 321 325 331 332 330 326 321 325 323 322 326 325 326 325 324 330 336 339 339 343 347 352 353 354 356 355 361 365 363 367 369 369 370 371 372 370 371 373 375 376 379 381 376 373 376 380 377 367 364 361 352 352 352 352 352 351 352 352 352 352 351 351
314 315 315 315 315 315 315 315 314 314 315 315 314 313 313 313 312 313 315 317 318 318 318 319 320 321 322 326 332 330 325 325 324 328 327 324 324 325 326 325 326 331 336 340 340 342 344 348 351 348 351 352 357 362 357 366 371 364 370 375 373 375 372 371 378 376 376 381 374 369 374 382 379 365 364 365 354 351 353 352 352 352 353 352 352 352 352 352
314 314 315 315 315 315 315 314 313 313 314 315 315 314 312 313 312 313 313 315 316 317 318 318 319 321 322 328 331 324 322 327 327 328 327 325 324 325 325 324 326 330 335 339 339 341 343 344 346 344 349 351 351 355 354 358 363 361 369 373 370 374 373 370 376 372 368 370 372 375 375 382 377 365 373 372 355 352 353 353 353 353 353 353 352 352 352 352
313 313 314 315 315 315 315 315 313 313 314 315 315 313 313 312 312 312 313 314 316 316 317 318 319 321 325 330 331 325 321 327 325 323 324 324 325 326 326 326 326 328 333 338 339 340 342 342 343 343 347 349 349 352 352 355 360 362 368 373 368 368 371 370 374 374 368 365 375 375 363 372 375 371 384 374 353 354 354 353 354 353 353 352 352 352 352 352
313 313 314 314 314 314 315 315 313 312 314 315 314 313 312 312 312 312 312 314 315 316 317 318 319 321 327 333 329 322 319 323 321 322 323 324 327 328 327 327 327 328 331 335 339 337 339 339 341 345 344 348 351 351 350 351 356 361 363 372 368 361 370 375 371 374 369 367 379 367 354 367 375 374 382 368 355 356 355 355 354 353 353 351 351 350 349 350
313 314 314 314 314 314 315 315 313 313 313 314 314 313 313 313 312 312 313 314 315 316 317 318 319 322 332 334 324 321 324 325 325 324 324 325 326 328 328 328 327 330 332 334 337 336 338 337 338 343 342 347 348 345 349 350 360 367 360 369 371 354 364 374 366 371 367 366 379 366 357 372 377 371 372 366 364 360 356 356 353 352 351 350 350 349 348 348
313 314 314 314 314 314 315 313 313 313 313 314 313 314 314 313 313 312 313 314 316 318 318 319 320 324 334 334 325 325 327 327 328 323 325 325 325 327 328 329 328 330 332 332 334 334 337 338 340 344 343 345 345 347 355 358 369 372 353 357 362 348 360 371 363 371 371 367 374 365 361 374 375 370 369 370 372 364 357 356 353 353 351 350 350 349 349 348
313 314 314 314 315 315 315 313 313 313 313 313 313 314 313 313 313 313 315 316 317 319 319 322 323 324 332 333 327 327 327 329 328 322 323 324 324 325 326 328 329 328 330 330 332 333 336 339 343 344 344 343 346 353 357 352 357 365 353 349 351 347 355 362 360 371 375 371 371 365 366 373 371 368 367 369 372 366 362 360 354 352 352 351 351 349 349 348
313 314 314 315 316 316 316 315 314 314 314 314 314 314 314 315 316 317 319 319 320 322 321 324 324 324 330 331 329 331 330 328 326 324 324 323 324 323 324 326 328 327 328 329 331 335 337 340 342 342 344 342 345 353 349 341 344 355 352 348 354 355 350 353 358 365 371 373 370 368 370 372 371 368 365 367 367 366 367 367 361 353 351 352 351 351 350 350
313 314 316 317 317 317 317 317 315 315 315 314 314 315 317 318 318 321 323 322 324 326 324 326 326 325 328 330 332 332 329 326 326 326 325 324 322 321 321 324 328 329 329 331 334 337 337 340 342 343 343 339 343 348 342 338 343 347 347 345 350 353 348 351 356 360 368 371 369 368 367 370 368 365 363 364 366 365 365 369 368 359 356 354 350 351 351 350
314 316 317 318 319 318 319 318 316 315 315 314 315 317 322 321 320 324 325 325 330 330 328 331 331 326 325 329 330 329 328 326 326 326 326 326 322 321 321 320 325 330 333 336 336 336 336 339 339 338 340 338 341 344 342 346 348 347 349 347 348 348 348 357 360 360 365 367 370 369 366 367 365 363 363 362 365 365 363 368 373 368 363 359 353 350 351 351
315 318 319 320 319 319 319 318 317 315 314 315 314 320 330 331 331 331 328 330 333 330 328 333 333 329 326 326 326 327 328 326 325 326 325 325 322 320 320 320 324 329 335 338 335 337 337 338 338 337 338 339 338 339 341 346 348 351 351 345 350 349 347 357 362 362 364 363 365 367 365 365 363 362 360 360 365 365 364 367 373 372 365 362 358 353 351 350
317 319 320 321 319 319 319 317 317 315 315 315 315 327 338 334 333 332 329 332 331 327 328 330 330 329 328 326 326 327 327 326 325 324 322 322 321 319 320 322 323 327 334 336 332 335 337 336 338 338 338 337 337 336 337 341 346 354 351 343 345 346 347 355 359 364 366 358 359 363 362 361 361 360 357 360 364 363 363 364 366 371 367 364 362 360 357 352
319 321 321 320 318 318 318 317 316 315 315 314 314 326 333 326 324 324 324 329 329 327 328 327 327 327 326 326 327 326 327 327 326 324 323 320 319 319 320 322 323 326 332 334 332 333 333 334 336 337 336 334 335 336 335 341 346 346 345 339 340 344 346 350 357 366 362 355 362 364 358 356 358 357 356 359 363 361 360 359 362 367 368 367 363 362 364 357
321 321 322 320 318 317 317 316 317 315 315 314 313 319 324 321 322 320 323 328 329 329 331 329 328 328 328 328 329 329 327 326 326 327 323 319 318 320 322 323 324 326 327 330 333 329 327 332 335 335 334 335 336 335 336 341 343 343 343 336 335 342 340 338 351 364 359 358 369 366 355 357 359 356 358 359 361 363 359 358 363 364 364 367 362 360 362 359
322 322 321 319 317 316 316 315 315 315 315 314 314 318 320 321 322 319 325 332 330 329 331 330 330 330 330 330 329 329 327 326 327 328 323 320 320 319 322 322 324 325 325 329 333 331 329 333 334 332 332 335 334 335 336 336 337 341 342 335 333 341 340 340 352 363 358 354 366 362 345 350 362 360 360 359 359 364 362 360 364 362 359 362 362 360 360 360
322 322 321 318 317 318 316 316 318 318 317 316 318 323 323 324 325 322 327 333 332 333 329 328 331 332 331 332 329 327 326 327 327 326 323 320 319 319 320 321 322 324 326 327 329 331 331 331 332 331 332 332 332 335 334 334 332 332 336 338 338 342 343 343 352 359 349 343 358 354 333 341 363 361 360 360 359 361 362 361 361 361 359 359 362 363 361 360
321 322 320 318 320 322 323 324 322 320 322 322 324 328 325 327 327 324 333 339 333 334 331 327 331 332 330 330 329 326 327 330 329 325 323 321 320 320 321 322 322 324 326 329 328 329 330 330 331 331 331 332 330 332 334 336 328 324 337 340 338 343 342 340 345 350 344 341 354 351 334 339 354 355 358 362 358 359 362 361 360 359 360 358 358 359 358 357
321 321 320 319 319 323 328 331 324 323 329 328 327 329 325 328 327 326 339 337 327 328 329 326 328 329 327 327 328 328 326 329 329 327 324 322 322 322 323 325 325 324 326 325 323 326 332 331 330 331 330 331 330 327 333 338 328 326 341 338 339 343 338 337 339 341 345 344 344 347 338 337 342 349 360 362 358 359 363 363 361 359 358 357 355 354 353 355
321 319 319 320 318 320 324 325 321 324 330 328 328 329 328 329 326 330 338 327 322 327 328 326 326 326 327 327 327 329 327 328 329 328 326 322 323 324 323 325 326 325 326 322 317 323 329 328 327 330 329 328 329 328 332 336 332 334 339 332 336 338 338 341 336 334 342 337 332 338 336 332 339 354 362 362 358 357 361 361 361 360 358 356 354 350 350 352
321 319 319 319 319 320 321 322 322 325 328 328 329 328 329 329 328 338 336 323 322 328 327 326 328 327 327 327 327 329 329 329 329 329 325 323 324 325 324 326 326 324 324 322 320 323 325 326 327 328 327 328 329 330 331 331 332 335 333 330 332 336 339 337 334 334 333 330 329 333 331 329 338 354 359 358 357 356 359 359 357 360 358 355 354 351 349 350
321 321 320 320 323 325 324 324 326 329 330 329 329 329 329 331 338 339 326 319 323 326 326 327 329 329 329 328 329 329 328 329 329 327 324 324 325 325 326 326 325 326 327 325 324 324 323 324 329 328 327 329 331 331 331 329 331 332 330 331 329 339 346 342 348 344 326 327 335 332 329 329 332 346 355 356 358 358 358 357 357 361 359 357 354 351 349 349
322 322 321 321 323 325 326 329 330 330 330 329 329 329 330 338 347 334 320 319 325 326 325 327 328 329 328 328 329 329 329 328 328 325 325 326 325 325 327 328 326 327 329 327 325 327 324 324 328 327 325 329 328 330 331 331 332 330 332 332 327 332 344 346 348 338 321 326 341 338 329 324 324 339 355 357 358 356 356 357 357 359 360 358 354 352 351 350
322 322 323 322 322 323 326 330 329 328 329 330 328 330 341 345 337 327 323 322 322 323 324 325 325 325 326 326 326 327 330 329 328 327 326 326 326 327 328 330 328 322 321 323 321 323 326 325 325 323 325 328 326 329 330 333 334 329 330 329 321 321 328 331 332 331 324 328 340 338 327 324 326 339 351 353 354 354 354 354 354 355 358 357 355 353 352 351
322 322 323 322 322 322 324 326 325 326 328 329 330 338 350 341 324 321 326 323 320 324 325 325 326 327 325 324 323 326 329 328 329 328 328 328 327 326 326 329 329 322 321 323 317 316 320 327 329 323 325 328 326 326 323 326 331 328 325 321 319 320 321 324 328 328 326 329 337 337 327 325 329 340 351 350 349 352 352 352 353 353 355 356 354 354 353 353
322 322 323 322 324 325 325 325 324 325 326 327 337 347 340 326 321 323 325 324 324 326 325 325 326 328 327 326 325 328 327 326 329 328 328 329 326 326 326 326 326 325 327 323 318 316 315 321 330 324 323 328 328 328 325 328 330 329 331 325 320 323 324 325 329 327 327 331 334 330 326 326 327 341 359 353 346 348 349 355 358 354 354 355 355 354 353 353
322 322 324 325 328 328 327 325 324 326 324 329 347 350 330 318 321 324 324 327 327 326 326 327 329 327 326 328 330 329 327 325 329 329 329 327 325 326 327 326 326 329 328 321 319 319 314 317 328 326 326 327 327 329 328 329 327 327 332 324 318 325 328 323 325 331 332 330 329 326 330 339 342 350 365 361 356 353 351 360 362 356 355 353 354 356 353 353
324 324 325 328 331 332 330 326 326 326 326 337 353 343 326 322 325 327 327 329 327 326 327 326 328 326 322 326 331 332 330 329 330 330 329 328 328 329 329 328 328 328 328 325 322 322 318 320 329 328 328 329 327 329 327 326 326 328 324 319 322 328 325 319 320 329 326 322 330 330 329 341 346 343 356 368 368 360 356 363 360 355 357 352 352 355 352 351
324 325 327 329 330 334 331 328 329 326 329 343 349 339 333 329 328 329 329 328 326 326 326 322 324 326 321 323 329 331 332 333 332 330 327 328 328 329 329 329 329 328 329 330 327 326 323 322 330 331 328 330 329 327 330 328 327 326 317 321 335 334 328 327 324 324 321 320 333 332 322 328 330 329 348 365 365 363 362 363 358 356 355 353 351 351 351 352
324 326 329 329 330 332 333 333 331 328 334 346 348 348 345 329 322 326 325 325 326 327 326 321 322 328 325 322 326 331 333 332 331 330 328 327 327 329 330 330 330 330 329 329 329 330 327 322 330 335 328 330 331 328 331 331 327 326 320 325 342 332 325 325 322 321 321 321 329 331 327 329 327 329 343 354 359 366 366 362 361 357 353 352 351 350 351 353
327 331 338 334 329 331 333 334 332 332 341 350 348 347 339 325 321 326 324 324 326 327 327 324 324 329 329 325 326 331 332 330 330 330 327 326 327 331 333 331 333 332 329 330 329 331 331 324 325 334 330 330 333 330 327 327 328 330 326 325 334 331 325 323 322 322 321 323 328 331 329 334 341 343 342 349 357 363 363 364 362 357 353 353 351 350 352 354
328 337 346 335 325 330 333 333 335 338 343 350 348 339 328 323 325 326 326 325 326 325 325 325 328 329 329 329 329 328 331 333 332 331 329 328 328 331 333 334 334 332 329 331 330 332 337 330 323 329 332 330 331 330 327 327 328 328 327 322 320 325 325 324 326 322 320 329 334 331 330 338 357 359 349 349 356 357 360 362 361 358 355 354 352 352 352 353
330 341 345 332 325 330 331 331 335 342 342 343 341 331 326 329 327 325 327 326 325 326 324 324 329 328 325 328 328 325 329 334 335 332 331 331 331 332 333 333 334 332 333 336 334 332 337 333 325 325 326 325 328 331 329 331 332 329 328 324 320 320 318 321 329 328 324 331 334 332 332 337 352 357 353 352 355 359 360 357 360 361 357 357 356 353 355 357
338 347 339 329 329 329 329 332 336 340 340 338 332 328 330 332 326 323 326 326 325 325 323 324 326 326 324 325 326 325 326 331 334 334 331 332 334 333 333 333 332 332 335 338 336 334 337 335 327 324 327 328 329 331 330 331 335 334 330 329 328 325 319 318 327 330 324 327 332 332 330 339 354 358 354 354 356 358 358 356 361 362 359 363 365 362 367 369
341 343 335 327 329 330 331 336 338 337 337 334 329 327 330 329 325 325 326 327 326 325 325 324 323 326 325 324 325 324 324 326 330 332 333 336 336 334 334 334 332 332 336 339 338 336 337 335 328 328 337 337 331 331 334 333 334 334 332 331 330 330 327 323 326 329 326 325 329 331 331 346 368 364 354 356 358 359 363 365 369 369 369 372 373 372 370 367
335 336 335 329 326 330 334 332 331 332 333 331 328 327 328 327 325 326 325 325 325 326 326 325 323 324 324 323 323 323 323 323 326 331 336 339 339 337 336 334 334 335 335 338 340 334 334 337 334 334 339 340 336 338 340 337 334 334 334 332 329 333 337 332 329 331 329 324 325 330 331 342 359 357 354 360 364 367 372 372 372 374 373 373 372 369 366 363
334 336 337 332 325 329 333 326 327 330 330 331 329 325 328 328 325 324 324 324 325 325 325 323 323 324 322 322 323 322 322 322 324 328 331 334 338 337 334 333 337 339 340 347 350 337 333 340 337 334 336 337 335 337 338 337 336 335 334 329 329 337 339 335 330 328 330 329 328 328 329 337 350 354 355 362 369 373 376 372 372 372 370 369 369 367 366 365
336 335 337 338 333 331 331 326 327 330 331 334 333 325 325 327 323 323 323 324 324 324 324 323 323 324 322 323 323 322 325 325 325 328 329 330 333 331 330 331 334 340 345 351 350 339 338 342 343 342 342 339 336 338 340 338 332 330 330 329 332 341 344 342 336 333 337 335 329 332 333 331 342 353 356 362 368 373 376 374 372 369 367 366 364 362 364 364
337 333 335 341 339 333 333 329 327 329 331 334 331 324 323 324 322 323 323 324 324 323 325 323 323 325 324 325 323 323 327 328 328 329 328 327 327 325 326 327 328 341 350 344 344 348 345 341 341 341 337 335 338 338 336 336 332 327 328 331 337 345 349 348 342 343 346 336 330 347 348 331 337 354 357 361 367 369 372 373 370 368 365 365 365 366 370 368
338 337 334 335 337 333 331 330 328 327 329 334 329 323 324 325 322 323 324 324 324 324 326 325 324 326 325 325 325 325 327 328 328 329 328 327 326 324 327 327 326 336 342 337 342 348 342 337 336 336 334 336 339 337 334 336 335 330 332 338 342 347 349 348 346 349 352 339 335 351 350 334 339 351 352 358 364 363 367 369 365 365 363 365 370 376 378 374
336 340 338 335 340 339 331 328 329 324 327 339 336 325 324 325 324 323 324 326 325 323 325 326 325 326 325 325 327 327 327 326 326 327 328 328 326 325 328 329 328 327 328 332 342 342 339 340 341 336 336 338 337 337 336 335 333 332 338 345 345 346 349 350 350 353 353 347 344 350 350 342 340 344 347 354 356 356 362 363 360 363 365 367 374 376 373 369
333 336 338 340 349 349 334 327 330 325 326 338 339 328 324 325 325 324 323 325 326 326 325 326 326 327 326 326 326 326 325 325 326 327 326 326 327 328 329 329 328 326 323 328 340 341 335 340 346 343 338 338 338 336 335 334 334 337 343 348 348 348 350 352 352 354 354 352 351 350 352 351 346 344 349 354 355 358 362 361 362 364 364 367 371 370 369 367
326 328 331 339 358 360 339 327 329 330 328 331 332 328 326 326 325 326 326 325 326 328 325 326 328 329 329 328 327 326 325 325 326 326 325 326 326 326 328 328 327 325 324 328 337 344 340 342 352 349 337 337 339 334 334 335 336 341 345 346 347 348 351 352 353 354 353 353 353 350 350 353 351 349 352 357 358 361 361 362 365 365 362 366 369 367 367 367
326 328 328 338 358 355 335 326 329 331 328 326 328 329 327 326 325 327 330 327 326 327 326 326 328 331 332 331 329 327 326 324 324 325 324 325 325 323 324 327 325 323 326 326 329 342 348 344 345 343 336 339 341 335 336 336 331 338 347 346 345 349 352 353 354 353 352 352 354 352 351 353 353 351 354 355 356 360 362 363 364 363 362 366 365 361 361 364
Wind_Speed
9 9 9 9 9 9 10 11 10 10 10 11 10 11 11 11 11 11 11 12 12 13 13 13 14 15 15 15 16 17 18 17 13 5 7 12 10 5 5 5 8 13 14 12 12 10 6 5 7 8 6 2 1 1 2 2 1 2 2 3 2 2 3 3 4 3 1 3 2 1 4 5 2 5 3 2 6 9 7 6 7 8 9 13 19 26 30 30
10 10 10 10 9 9 10 11 11 10 10 11 11 11 11 11 11 11 12 12 12 12 13 13 14 14 14 15 16 17 18 17 11 7 14 17 13 12 10 8 9 14 16 15 16 13 7 4 7 7 3 1 1 2 2 1 2 2 2 2 1 3 3 4 5 3 2 3 3 2 2 4 3 3 1 1 5 7 6 7 10 12 12 16 21 26 27 28
11 11 11 11 11 10 10 10 11 11 10 11 11 11 11 11 11 11 11 12 12 12 13 13 14 14 14 14 15 15 16 12 6 8 16 14 12 15 13 12 10 13 16 17 17 15 9 6 8 7 2 1 1 2 2 1 1 1 2 2 3 4 2 3 6 6 5 4 3 3 2 3 3 2 1 3 6 5 7 8 10 11 13 16 17 22 25 25
12 13 12 12 12 12 11 10 11 11 10 10 11 11 11 11 10 11 11 11 11 12 13 13 14 14 13 14 14 13 11 6 3 6 8 8 10 11 12 15 12 12 15 15 14 14 10 5 6 6 2 1 2 2 2 3 2 1 3 2 4 3 2 4 6 6 5 4 3 3 2 3 3 3 3 7 7 2 6 9 11 14 17 17 16 19 22 22
14 14 14 14 13 13 12 11 11 11 11 10 11 11 11 11 10 10 10 10 11 11 12 13 14 14 13 14 12 10 6 3 2 4 2 3 5 7 11 15 12 12 14 13 12 11 9 5 4 3 1 1 2 2 2 4 3 1 2 3 3 3 2 4 5 5 4 2 1 2 1 1 1 3 5 7 7 5 5 8 11 15 17 18 18 18 19 19
15 15 15 15 15 14 13 12 12 11 12 11 11 11 11 11 10 10 9 9 10 11 12 12 13 14 13 13 9 5 1 1 4 2 7 8 7 8 11 14 12 13 13 12 11 9 7 5 3 2 1 1 3 3 2 4 3 2 2 2 2 3 2 3 3 4 5 3 1 0 1 2 2 3 6 5 6 6 5 9 12 13 17 21 20 18 16 15
16 16 16 16 16 16 15 14 13 12 12 12 11 11 11 11 10 9 9 9 10 10 11 12 13 13 14 11 5 3 3 4 8 5 7 8 8 9 12 14 13 15 14 12 10 8 5 4 3 3 3 1 3 3 2 2 3 4 1 1 3 3 2 1 4 4 5 5 3 2 1 1 3 1 3 3 5 6 7 11 13 14 18 21 18 16 15 15
17 17 17 17 17 16 16 15 14 13 13 12 12 11 11 11 11 10 9 9 10 10 11 11 12 12 14 9 3 3 0 7 9 11 8 6 8 9 12 14 15 16 17 15 12 9 6 6 6 3 3 3 3 3 3 3 2 2 2 2 1 2 2 2 5 4 4 3 1 1 0 0 2 3 1 2 8 9 9 14 14 15 17 17 16 16 15 15
17 18 17 17 17 17 16 15 14 13 14 13 12 11 11 11 11 10 9 9 10 10 11 11 11 11 12 7 3 2 3 5 5 11 13 11 10 11 14 14 16 17 15 16 15 10 7 7 8 5 4 4 4 3 4 4 1 3 3 3 2 1 2 3 3 2 3 1 1 2 1 3 4 4 1 3 9 10 11 16 16 16 16 15 15 16 15 15
18 18 18 18 18 18 17 15 14 14 14 13 12 10 10 11 11 10 9 9 9 10 11 10 10 9 8 4 4 1 4 3 3 10 11 13 12 13 16 14 17 19 14 13 15 12 8 8 8 6 4 2 5 3 4 3 2 4 5 4 3 2 2 2 3 2 2 0 1 2 2 4 3 1 1 3 9 12 13 16 17 17 17 16 15 15 16 16
18 19 19 19 19 18 17 16 14 14 14 12 11 10 10 10 10 10 9 9 9 9 9 9 9 8 5 3 4 3 2 4 6 8 9 15 14 13 15 14 16 19 16 10 13 15 12 12 11 3 3 2 4 2 3 4 3 5 6 3 1 1 1 2 2 2 1 0 1 2 1 4 4 1 3 4 10 15 15 16 18 17 16 16 17 15 14 15
19 19 19 19 19 19 18 16 15 14 14 12 10 10 10 10 10 10 9 8 8 8 8 8 7 5 4 2 4 9 4 5 3 4 7 12 12 10 10 12 16 18 18 11 10 13 13 16 12 5 2 4 4 1 2 4 5 5 5 3 3 2 1 4 2 2 2 1 4 4 1 3 2 3 5 3 11 15 16 17 18 17 14 14 15 14 12 15
19 19 20 20 19 19 17 16 14 13 13 12 10 10 10 10 9 9 8 7 7 7 7 6 5 3 3 0 8 13 10 10 13 13 13 13 13 13 10 11 14 16 18 14 11 14 17 18 10 4 3 5 3 1 3 4 5 3 2 3 0 3 3 6 3 3 3 2 5 5 1 4 5 7 5 4 10 15 14 15 17 15 14 14 13 11 12 15
20 20 20 20 19 18 16 15 14 13 12 11 10 9 9 9 8 8 7 6 6 5 5 4 2 1 2 5 12 13 13 15 17 16 13 14 17 18 15 12 12 15 17 17 18 18 20 20 10 3 1 4 4 3 5 3 3 2 0 2 2 1 4 5 3 5 3 2 4 5 1 4 6 9 6 4 8 13 14 13 14 14 12 13 13 12 12 13
21 20 20 19 18 17 15 14 13 12 12 10 9 8 8 8 7 6 5 5 4 4 4 2 1 2 1 8 12 10 9 10 14 17 12 11 14 15 17 16 15 16 17 18 21 20 19 16 6 2 2 4 7 5 3 1 2 2 1 3 1 2 3 5 3 7 5 1 2 4 1 4 5 9 8 4 7 10 11 12 12 12 12 12 12 13 12 11
21 20 19 18 17 16 14 13 12 11 11 9 8 7 6 5 4 3 3 2 2 2 1 2 1 2 0 6 8 7 6 6 11 15 12 11 13 12 14 16 17 18 19 20 20 19 16 9 2 2 1 4 6 4 3 2 3 2 2 2 3 2 2 3 3 7 7 3 2 2 2 3 4 6 7 5 8 9 8 9 12 13 12 11 10 11 11 9
21 20 19 18 16 15 13 12 11 10 9 8 7 4 2 2 2 1 1 1 1 1 1 2 2 0 3 8 7 6 6 8 10 11 13 14 14 14 10 8 11 15 18 17 14 11 8 4 2 2 1 2 4 4 3 1 4 3 1 2 3 3 2 1 3 4 6 5 4 4 3 4 5 5 6 6 7 9 8 7 9 12 11 11 9 9 10 10
20 19 18 17 16 14 12 11 10 8 7 6 3 0 0 1 1 3 4 6 5 4 2 2 2 2 3 6 5 6 8 9 11 12 14 15 14 15 11 4 5 9 8 8 8 5 1 2 2 2 3 1 3 5 3 5 5 3 4 3 3 3 3 4 3 4 8 6 5 5 5 8 8 6 6 7 6 8 8 7 6 8 9 10 10 10 10 11
19 18 17 16 15 13 11 9 8 6 5 4 0 1 1 1 2 4 5 5 4 2 0 2 3 2 2 4 5 10 13 7 10 11 14 16 15 15 12 5 3 5 4 2 4 4 3 2 2 2 3 4 4 6 7 8 6 6 7 4 3 4 4 5 4 5 10 6 5 7 6 8 9 7 7 6 6 7 7 6 5 5 6 8 9 10 11 12
18 17 16 15 14 12 9 7 5 4 3 1 2 2 1 2 2 1 1 2 4 5 3 6 7 4 5 6 6 11 14 5 6 10 14 17 14 9 5 2 1 1 3 4 3 3 4 3 4 5 6 8 7 8 10 8 6 5 5 4 5 5 6 5 4 5 9 6 5 9 6 7 8 8 9 7 6 7 7 7 6 6 5 6 7 8 11 13
17 16 15 14 13 10 7 5 4 3 1 2 3 2 2 1 1 0 2 4 8 10 7 7 11 10 9 9 11 10 9 5 4 6 12 16 12 6 2 1 2 2 3 6 4 2 3 5 6 9 10 11 11 9 8 8 6 4 4 5 4 5 7 6 4 6 8 5 5 7 6 9 9 8 7 7 7 8 9 8 8 8 6 5 6 6 7 10
16 15 14 13 11 9 6 4 3 2 1 3 3 1 1 2 2 1 1 3 7 12 12 8 10 11 13 17 22 13 4 5 7 6 9 12 8 5 2 2 3 3 4 3 3 2 2 5 9 12 11 10 12 10 8 8 7 5 4 4 3 4 5 4 2 7 7 4 4 6 7 9 9 7 7 9 10 8 8 9 8 8 8 6 7 6 5 6
15 14 13 11 9 7 5 3 2 1 2 4 4 3 3 1 2 6 2 1 6 6 8 7 8 8 10 15 20 11 4 5 5 6 9 12 5 5 5 4 5 5 3 2 5 4 3 6 10 12 10 9 11 10 8 8 7 5 5 4 4 4 3 3 2 6 8 4 2 5 5 6 5 5 7 10 10 7 6 8 7 8 9 8 8 7 6 6
13 13 12 9 7 5 4 4 3 2 2 5 7 5 2 1 4 8 4 1 4 4 6 9 7 5 8 9 8 6 4 5 5 5 11 13 4 3 6 5 6 4 5 5 7 7 7 9 9 8 9 10 11 12 8 6 5 7 8 7 6 7 8 7 3 5 4 3 1 5 1 5 4 5 7 7 7 6 6 8 8 7 8 8 7 7 6 6
13 12 10 8 6 4 4 5 4 5 4 6 6 1 3 3 4 5 2 2 3 4 4 6 5 6 10 7 5 6 3 4 6 5 11 13 8 4 3 4 4 4 7 8 6 6 9 12 10 8 10 10 10 11 9 5 4 6 8 9 11 12 11 8 5 7 3 4 3 5 1 5 4 7 8 5 5 8 7 9 10 8 7 7 7 7 7 6
12 11 8 6 4 5 5 4 4 6 4 5 7 6 1 1 3 1 1 4 2 3 1 3 3 5 7 5 5 2 2 3 7 8 13 15 13 8 2 1 1 4 7 6 5 3 6 10 10 11 12 11 9 8 9 7 5 5 6 7 11 12 11 9 8 6 3 3 5 7 6 4 4 5 8 7 8 10 7 8 11 8 7 8 8 8 8 7
11 9 7 4 0 3 3 1 3 2 2 6 13 10 2 2 1 1 2 4 2 2 0 0 1 2 5 6 6 4 1 4 5 3 11 16 12 6 4 3 1 3 4 1 2 3 5 7 7 9 10 9 7 6 8 8 5 6 6 7 11 11 11 10 9 6 4 3 3 8 8 1 3 6 6 8 10 10 8 9 10 8 9 9 8 9 10 9
9 7 6 3 1 2 2 3 5 2 2 9 12 11 8 4 1 2 4 3 1 2 1 2 2 2 3 4 7 4 3 2 2 3 9 16 9 5 3 6 4 6 4 3 3 6 3 4 6 8 7 6 7 7 8 6 5 8 7 6 9 11 11 9 8 6 4 3 2 5 7 2 5 5 1 7 9 10 11 11 12 10 11 10 9 10 11 11
7 6 4 4 2 3 4 6 6 4 7 10 10 10 11 8 3 3 4 2 1 1 1 1 1 3 2 0 3 2 1 2 1 4 3 10 8 4 4 6 6 6 5 5 6 7 4 6 7 6 6 5 7 8 6 5 5 7 6 2 3 6 9 7 6 4 4 4 4 6 7 4 5 4 1 5 6 10 12 11 11 12 12 11 10 11 12 11
6 5 3 3 2 2 5 6 5 7 10 10 10 12 12 7 4 3 3 1 1 2 2 1 1 1 3 1 4 2 2 2 2 1 2 2 5 3 2 1 3 2 3 2 4 7 6 7 5 4 5 5 6 6 4 5 6 4 3 2 3 2 2 0 2 5 4 2 6 8 9 7 3 4 3 5 8 13 13 9 9 11 12 12 11 10 11 11
5 4 3 3 3 2 3 4 4 8 10 11 14 12 7 4 3 4 3 0 1 3 3 2 3 1 4 4 5 3 3 3 1 4 1 1 2 0 3 3 2 2 3 3 3 5 5 6 4 3 5 5 5 6 3 3 2 2 1 2 4 5 4 5 5 3 2 4 7 7 8 9 5 5 5 9 11 12 12 11 12 13 14 13 11 11 11 11
5 5 6 6 7 8 7 4 5 8 9 12 13 6 4 4 3 3 1 2 2 3 4 3 4 4 2 3 5 4 4 2 2 6 4 2 4 3 2 3 2 2 3 3 2 5 6 6 7 4 5 5 3 4 5 5 5 5 3 4 4 2 3 3 4 1 2 5 7 5 3 5 6 6 8 13 14 11 11 13 13 14 15 13 12 12 11 10
6 7 8 8 10 13 12 9 8 9 11 14 9 3 5 5 3 2 2 2 2 4 5 3 6 9 7 4 4 2 2 1 2 3 3 3 4 4 4 5 5 3 1 3 0 3 5 7 8 4 4 4 4 3 3 3 4 2 1 2 4 2 2 1 4 2 2 5 6 4 1 2 5 6 7 12 15 15 13 12 12 13 14 13 12 11 10 10
7 8 8 10 12 13 12 8 8 10 13 12 5 4 6 5 2 1 2 2 3 5 5 4 7 9 7 6 6 5 4 4 6 3 1 2 2 2 3 2 3 2 2 1 1 1 2 5 5 1 3 3 1 4 5 3 2 3 4 5 3 3 4 3 3 2 3 5 5 3 1 3 4 5 6 9 11 12 11 8 8 9 10 10 9 9 9 9
8 8 10 12 12 9 7 6 7 9 8 6 5 5 6 3 1 2 2 3 2 4 7 7 7 6 7 7 7 7 4 3 7 5 3 4 3 2 3 1 1 1 3 2 1 2 1 4 6 5 6 3 3 4 3 2 3 4 2 5 1 3 5 3 4 5 4 1 3 3 1 4 5 4 3 2 3 5 8 7 8 8 7 8 9 9 9 9
8 10 10 11 10 4 4 5 6 6 1 4 5 5 3 1 1 0 1 3 2 4 7 7 6 5 5 5 6 9 6 4 6 5 3 3 3 4 5 2 3 4 3 2 2 0 1 4 6 8 9 5 3 2 1 2 4 2 0 2 4 5 6 4 4 2 3 2 3 2 1 4 3 4 6 5 4 5 8 8 8 9 9 10 10 10 10 9
8 9 8 10 8 6 8 7 8 6 2 5 5 2 0 1 1 0 1 3 4 4 3 4 3 3 3 3 3 7 6 5 6 4 3 3 2 4 5 4 6 8 5 2 0 0 1 3 6 5 8 9 7 5 6 3 2 1 3 5 3 0 2 3 2 1 3 1 4 1 1 4 3 3 6 6 5 5 7 8 8 8 10 11 10 10 11 10
8 7 8 8 7 11 10 8 8 6 4 5 3 1 1 2 3 2 3 4 4 4 5 3 3 2 3 2 2 4 4 4 5 3 3 4 2 2 4 4 6 9 7 4 3 1 1 2 6 4 6 9 9 9 10 10 7 2 4 3 2 1 1 1 1 1 1 2 3 3 3 2 1 2 3 2 3 6 7 7 8 9 10 10 9 9 10 10
6 3 4 3 9 13 11 11 8 4 5 3 2 2 1 1 4 5 5 5 4 6 4 3 4 2 2 3 2 3 2 2 2 2 2 2 2 3 5 4 4 8 9 6 4 2 2 1 4 4 6 7 6 6 5 8 10 9 7 4 1 3 3 2 2 3 3 2 2 2 3 2 3 5 3 4 6 6 8 8 8 10 10 9 9 9 9 8
4 2 3 2 11 13 14 12 4 5 3 1 2 2 2 1 4 6 7 7 5 4 3 3 4 3 3 4 3 3 2 1 2 1 1 1 1 3 5 4 4 7 8 8 7 3 3 3 3 5 4 3 2 2 2 4 6 7 7 5 5 3 1 2 2 2 3 3 2 1 1 4 5 3 4 6 7 6 10 10 8 9 10 9 9 10 9 8
3 3 3 4 14 17 14 7 2 2 1 1 2 2 1 2 3 6 8 8 6 3 3 4 4 3 3 4 4 4 4 2 2 2 1 2 1 1 4 4 4 6 5 6 6 3 2 1 2 4 4 2 1 1 2 5 3 1 2 3 6 5 2 1 2 2 1 4 4 3 1 6 5 2 3 7 7 7 9 10 8 8 9 9 8 9 8 7
3 2 2 5 16 17 10 3 2 1 1 3 3 2 1 2 3 6 6 7 6 4 4 3 4 4 4 4 4 6 5 3 3 3 1 1 2 0 3 4 4 4 3 2 2 1 1 1 1 3 3 4 5 3 1 4 3 2 2 4 6 4 1 1 2 2 1 1 1 4 2 5 6 3 4 5 8 7 6 7 7 6 6 6 5 4 4 4
2 2 5 3 12 13 6 4 3 2 1 4 1 4 4 3 3 5 5 5 4 3 4 4 4 5 6 5 5 6 6 4 4 4 1 1 2 2 4 6 6 4 3 1 3 3 2 2 2 4 4 5 6 2 2 2 6 5 4 7 7 6 5 4 5 4 2 0 1 3 1 5 6 3 4 2 5 5 3 4 5 5 4 4 5 5 6 5
1 4 4 5 6 7 4 2 2 4 3 3 5 5 5 5 5 5 5 5 4 3 3 5 5 5 5 5 4 5 5 3 4 6 4 2 1 4 5 7 7 5 2 2 1 2 2 1 2 3 4 5 6 4 3 5 7 3 6 9 9 10 11 6 0 3 1 2 3 4 1 6 4 4 4 3 7 6 5 5 5 5 5 5 6 5 5 5
2 2 3 5 2 3 3 2 2 4 4 5 6 5 5 4 4 6 6 6 6 4 4 5 6 5 5 6 5 5 5 3 2 6 7 5 4 4 7 8 5 3 1 2 2 1 1 1 2 3 2 1 2 2 2 3 4 2 7 11 9 10 11 6 1 5 2 2 3 4 4 6 3 3 3 4 8 6 4 4 5 5 5 6 5 5 5 5
2 2 3 5 5 4 1 2 3 5 3 4 4 6 6 3 3 6 7 6 7 7 6 6 7 7 7 8 6 5 7 6 4 4 5 6 5 5 7 9 6 2 2 6 6 2 1 1 1 5 4 3 4 4 3 2 1 3 8 11 8 7 7 4 2 2 1 1 1 4 7 5 3 2 1 2 6 7 5 5 5 5 6 6 6 5 5 5
2 2 2 2 3 4 3 4 4 4 3 4 2 4 7 6 4 6 6 4 6 7 5 5 7 7 7 7 5 4 7 7 6 5 5 4 4 7 9 9 7 6 5 6 6 3 3 2 2 1 2 2 3 5 3 2 1 5 7 6 7 6 6 5 4 2 2 4 0 6 6 8 7 7 6 5 6 8 6 5 5 6 5 5 6 6 6 6
2 0 1 1 1 1 3 4 4 6 6 5 2 3 6 8 6 5 4 3 6 7 4 4 7 7 8 8 4 4 7 6 5 5 5 4 5 7 9 7 7 8 7 5 4 3 4 1 3 2 3 3 3 6 6 1 2 4 3 4 5 5 6 6 3 4 0 4 3 7 6 10 7 5 8 10 8 9 7 5 5 6 6 6 6 7 6 5
3 1 3 2 0 1 2 4 5 8 8 5 3 4 5 7 7 5 4 3 4 6 4 4 6 8 8 7 5 3 5 4 4 5 4 5 5 4 5 6 6 6 7 5 4 2 3 1 3 2 4 5 5 7 7 3 1 2 5 6 5 4 3 4 5 4 3 4 2 3 2 2 1 3 7 7 4 6 6 5 6 7 7 7 7 7 5 4
3 1 4 4 3 3 3 5 5 6 6 5 4 4 3 6 6 5 4 4 4 3 3 4 5 6 6 5 5 3 2 2 4 5 4 4 5 2 2 3 4 5 7 4 3 2 2 2 3 4 4 5 6 6 6 3 2 4 7 9 8 6 3 4 6 4 4 6 8 9 9 6 8 8 3 3 4 6 7 6 6 6 7 8 8 6 5 4
4 4 3 2 2 4 3 3 4 5 5 4 3 4 3 4 4 3 3 4 3 2 3 4 5 5 5 5 5 4 5 5 7 8 7 5 5 4 3 3 3 5 6 3 2 2 1 1 2 4 4 4 5 6 8 4 5 7 8 10 11 8 4 2 4 5 5 6 7 10 9 6 10 10 3 5 6 7 8 7 6 5 5 8 9 7 6 6
9 4 4 1 0 4 3 3 5 4 3 3 4 6 5 3 4 4 3 4 1 2 3 5 7 4 3 4 6 6 7 7 9 9 8 7 7 6 6 6 6 4 3 2 2 2 2 1 1 3 2 4 5 6 7 3 4 3 3 6 9 8 5 3 4 8 8 5 5 7 5 5 8 8 5 1 3 5 7 6 6 6 5 5 7 7 7 7
Wind_Direction
344 341 339 338 335 335 334 333 332 330 329 325 327 330 326 329 330 331 332 334 337 337 339 339 339 339 338 339 336 332 328 326 321 294 234 268 277 230 203 187 158 156 167 171 164 163 178 179 145 143 151 130 107 143 140 148 59 52 74 87 95 171 188 181 188 181 197 278 351 75 154 132 208 257 289 2 120 139 149 133 111 84 83 117 130 137 144 148
346 344 339 337 334 331 330 328 329 329 329 326 327 326 323 325 327 328 328 329 333 333 335 335 335 335 336 338 334 332 329 322 317 277 257 270 275 252 226 194 162 158 170 177 181 179 169 190 176 158 138 82 237 144 146 198 111 108 109 86 173 205 211 172 154 161 234 257 302 290 151 127 187 206 299 69 128 144 133 114 103 92 99 119 132 141 146 149
344 342 339 336 334 331 330 327 327 326 326 325 324 323 322 322 324 325 325 326 328 329 330 330 331 332 335 336 334 332 328 324 316 266 265 265 259 253 230 197 176 167 175 175 185 193 190 204 185 164 134 150 207 135 143 207 166 174 107 88 248 212 180 168 154 167 204 240 296 298 98 118 190 164 93 118 115 142 146 134 121 119 130 133 141 147 146 146
341 339 336 334 332 330 329 329 327 324 323 322 321 322 320 320 322 322 323 324 324 326 325 327 328 328 334 335 332 327 327 339 297 254 264 255 239 236 211 197 184 173 181 175 186 201 202 205 180 172 180 190 175 131 160 192 190 190 122 161 237 177 139 193 175 171 192 221 268 304 57 109 172 166 174 132 113 163 171 163 153 144 146 144 149 152 149 146
339 336 334 332 330 328 327 327 324 322 320 320 318 317 318 319 320 321 323 322 321 321 321 323 324 326 334 335 331 323 338 33 274 244 159 176 204 183 179 193 186 176 182 179 192 200 198 192 165 177 201 169 153 137 217 200 167 90 166 187 198 137 139 204 181 163 173 191 299 347 54 16 41 167 180 144 146 200 185 168 157 146 148 149 151 154 153 151
335 333 332 329 328 326 324 324 322 319 317 318 317 314 316 315 315 319 321 320 317 317 318 320 324 326 334 341 337 320 23 94 273 214 129 121 123 136 165 191 186 179 182 182 193 198 199 176 139 186 168 151 184 181 210 200 143 91 230 182 145 145 145 188 153 159 165 118 66 262 232 307 13 157 186 186 183 185 155 145 146 144 144 145 150 155 157 159
333 331 330 328 326 324 323 322 321 319 317 317 317 313 314 312 313 316 315 317 314 315 317 319 327 329 337 352 350 1 93 250 257 180 132 121 131 149 173 191 184 180 184 187 197 206 205 177 193 195 141 194 203 184 177 164 115 97 215 208 149 157 137 143 131 155 158 135 185 219 265 14 53 153 211 213 158 138 130 134 137 138 140 144 151 158 163 165
332 330 329 327 325 323 322 320 319 319 317 316 315 312 311 310 310 310 312 313 311 316 316 319 331 332 342 0 27 24 22 253 233 190 195 184 166 174 183 188 185 183 186 196 202 204 206 197 217 184 132 219 176 150 155 112 76 111 178 196 155 166 121 102 127 146 144 142 200 134 95 180 178 235 305 102 131 131 132 135 137 138 142 150 155 162 168 171
331 329 327 325 324 323 320 318 318 316 315 314 312 308 306 307 308 308 308 308 311 317 315 322 331 336 347 358 58 33 261 256 210 197 213 209 193 189 188 188 190 187 189 209 211 208 216 209 218 189 159 203 144 146 156 116 245 193 165 157 151 210 146 118 132 153 145 177 255 109 313 285 227 228 325 139 146 139 135 138 145 146 150 158 161 168 173 177
328 326 324 323 321 320 317 316 314 313 312 311 310 305 302 302 303 305 305 308 313 316 316 325 331 341 352 4 68 48 276 331 178 189 194 195 190 186 188 192 196 193 195 218 220 216 219 223 231 190 160 170 135 157 164 146 211 165 140 143 163 200 182 148 153 173 149 240 211 140 281 290 276 171 159 199 154 144 141 146 154 155 160 166 169 175 177 180
325 323 322 320 318 317 315 313 311 310 308 308 309 304 299 298 299 303 305 307 311 316 319 325 333 345 355 52 95 217 255 81 147 175 187 188 183 185 192 200 202 199 203 219 230 227 227 249 262 223 167 156 132 151 180 171 151 136 125 110 268 239 198 182 145 184 166 342 204 128 320 305 332 115 201 205 152 152 156 158 163 163 167 171 174 178 180 184
324 321 320 318 317 315 312 310 308 306 305 306 307 301 298 297 297 301 302 307 313 316 319 326 340 349 356 56 199 229 201 126 173 269 239 204 200 207 195 204 210 207 210 217 245 245 242 255 267 281 234 145 127 148 200 166 123 122 119 107 300 356 265 231 182 185 166 192 201 140 38 315 308 230 223 179 152 160 166 165 166 169 172 176 179 179 181 186
322 320 318 317 316 313 310 307 305 303 302 303 304 299 297 296 298 301 302 308 312 313 316 329 343 352 17 282 241 254 271 277 282 288 264 237 240 235 203 201 215 218 219 221 247 260 259 261 262 263 222 139 142 184 153 141 104 99 99 109 63 16 300 238 180 157 147 178 186 147 212 260 248 243 226 169 162 163 168 169 168 174 177 179 184 182 184 185
323 321 318 318 317 314 310 306 303 300 299 302 301 298 298 297 299 299 301 308 312 313 313 323 339 67 91 258 266 279 294 296 283 272 254 233 231 227 210 201 212 224 228 229 247 260 266 272 272 249 228 123 142 126 114 111 96 124 90 54 100 101 276 252 170 150 146 198 164 119 198 243 245 246 228 178 162 157 168 176 172 178 177 176 183 184 190 186
324 322 321 321 319 316 313 308 303 299 298 299 297 299 301 300 305 306 310 313 307 299 301 322 218 150 51 279 279 294 306 298 262 241 230 230 230 218 207 203 210 222 230 234 246 259 272 287 299 272 301 106 126 122 99 56 26 92 145 320 312 171 270 287 200 165 155 209 171 119 176 262 254 239 227 180 145 147 170 182 177 181 179 176 180 182 189 184
325 324 324 323 321 319 315 308 302 298 297 296 298 306 307 310 324 318 312 301 299 301 311 54 193 178 83 284 292 310 286 259 245 228 214 230 239 223 209 209 215 221 229 236 245 259 273 290 303 220 230 117 128 126 81 39 329 4 141 249 261 195 257 299 247 191 166 142 198 173 176 267 265 237 225 183 148 144 165 182 178 182 184 180 178 179 181 171
327 327 326 325 324 320 314 308 303 298 295 295 302 310 311 337 18 20 347 183 153 54 106 51 353 116 249 277 304 317 259 232 242 230 213 221 228 228 222 206 213 219 226 237 244 257 276 288 243 243 254 129 133 118 84 253 267 302 186 238 249 206 185 232 266 216 170 146 189 209 214 249 267 251 218 190 154 147 167 181 174 177 184 185 180 178 178 171
330 329 329 328 326 321 315 307 303 299 297 300 304 289 128 58 94 97 108 131 114 71 35 350 11 58 267 278 294 290 273 241 228 217 213 219 218 225 230 211 208 214 217 235 245 243 261 290 271 304 304 264 132 129 167 223 219 203 196 225 250 218 196 208 237 200 166 160 183 191 227 247 263 268 221 197 161 157 179 178 169 169 171 179 184 182 180 179
332 331 331 330 328 325 318 307 304 300 301 310 248 174 162 120 108 107 115 121 113 95 63 211 176 126 264 267 263 283 299 269 208 204 211 215 211 219 230 234 223 201 179 191 244 233 198 265 312 309 270 246 187 175 202 215 201 193 193 189 194 208 231 219 219 193 163 155 191 192 216 239 249 253 224 206 175 174 189 173 169 175 159 165 183 188 185 185
333 332 333 332 330 327 319 308 300 292 307 9 151 164 107 86 72 79 144 182 211 215 196 186 196 241 288 292 289 301 320 318 189 200 209 206 197 203 227 209 100 186 169 168 213 228 177 204 255 237 239 247 233 207 209 217 204 182 183 205 200 199 245 242 216 200 160 147 212 204 215 243 244 239 219 204 183 184 194 179 175 187 175 165 176 181 184 188
333 333 335 336 334 328 318 303 285 275 283 158 168 142 106 116 111 350 276 239 233 231 233 205 199 235 266 279 287 300 329 320 244 229 206 191 170 156 244 195 99 322 229 183 204 242 169 199 237 233 231 242 246 238 230 227 206 174 184 224 234 213 242 250 200 185 162 159 229 202 207 243 243 238 220 194 189 198 198 190 186 190 188 179 179 174 180 190
335 335 338 342 339 333 322 303 284 276 227 182 179 167 255 233 183 326 317 272 258 224 225 227 208 241 261 266 273 275 295 273 271 271 195 168 148 152 221 184 150 265 264 185 203 262 236 230 242 240 238 242 250 253 244 227 204 194 203 209 245 234 246 276 172 164 165 176 240 199 199 239 241 230 217 196 195 206 201 194 189 186 188 187 187 182 186 196
336 336 344 346 344 346 343 338 328 294 222 199 201 211 239 244 311 330 3 272 287 221 209 219 207 239 255 263 268 253 245 241 238 258 188 158 154 169 158 160 182 227 262 195 197 219 242 243 241 241 248 254 258 260 243 221 202 205 207 190 228 222 202 263 225 168 177 182 175 175 202 253 250 223 221 209 201 207 206 201 194 187 189 192 191 186 184 193
337 340 350 351 352 4 17 36 35 349 294 241 240 233 212 56 329 330 8 155 291 270 216 199 184 221 230 247 258 204 205 220 205 234 183 156 137 159 155 171 180 203 241 221 200 208 232 242 238 233 242 245 252 263 249 206 197 221 220 203 213 212 204 220 197 142 175 238 113 100 14 291 239 202 219 220 208 210 211 204 203 201 196 189 186 188 183 183
340 345 355 2 20 46 57 62 47 6 335 258 259 320 87 47 335 321 26 76 303 289 228 182 172 229 229 226 229 199 181 215 218 199 169 158 146 153 177 176 161 196 233 236 220 217 237 244 244 241 245 242 243 257 247 202 191 223 230 214 197 199 211 202 135 109 105 274 240 123 71 289 248 208 209 205 209 216 215 208 207 205 199 189 180 191 193 179
344 348 358 8 41 64 71 81 31 356 317 291 331 -0 90 45 8 321 100 50 354 282 202 149 169 216 223 203 204 211 46 278 240 175 161 172 167 154 166 205 184 204 214 231 230 220 237 237 235 237 243 243 240 247 237 218 207 231 241 211 185 187 207 191 143 129 138 235 221 161 175 269 291 241 211 190 207 216 215 218 215 205 197 198 188 188 194 183
346 351 1 3 80 76 82 91 4 339 250 331 355 4 335 260 24 120 71 46 4 289 195 214 146 177 215 192 158 111 61 276 280 165 168 182 174 129 147 198 257 226 204 170 230 235 240 247 248 244 248 247 244 245 224 199 179 241 239 175 169 180 201 192 161 168 191 203 212 168 167 227 294 255 209 179 203 217 217 220 220 212 203 204 198 190 191 189
349 360 6 9 281 284 315 327 326 280 278 342 358 11 1 328 309 80 73 72 306 319 326 246 240 251 262 188 154 151 204 193 354 283 183 172 163 94 161 207 194 220 219 136 235 260 243 252 260 252 256 250 247 251 228 188 174 241 237 165 166 186 202 199 176 188 182 142 261 201 160 177 269 276 191 161 197 221 221 216 213 211 205 202 200 195 193 193
348 2 15 34 12 316 325 316 308 320 341 347 359 359 344 344 24 67 78 99 238 301 300 273 265 268 305 144 201 223 253 119 166 265 157 148 164 135 174 213 190 221 235 164 218 261 243 243 247 243 253 234 234 244 223 199 214 240 245 173 158 195 206 204 172 159 132 139 240 228 171 180 266 286 104 146 198 223 224 218 208 206 204 200 199 196 195 194
338 350 11 35 30 4 340 308 315 360 355 348 346 334 330 352 58 70 50 63 238 285 300 344 300 250 114 127 272 251 191 221 195 174 49 129 188 157 118 200 144 195 265 192 224 251 254 266 257 228 241 229 234 247 218 215 234 248 279 320 19 346 232 233 104 112 117 193 245 227 184 173 259 275 194 178 204 211 212 214 205 201 201 199 197 196 195 195
321 321 312 309 301 315 328 310 336 352 347 343 333 326 338 18 77 83 64 40 265 318 333 294 269 265 138 183 253 234 199 256 153 131 167 220 171 97 16 21 50 46 343 336 299 285 305 309 282 233 246 256 269 280 286 290 290 58 39 63 44 348 358 19 2 60 126 250 256 234 184 169 221 267 220 215 223 211 202 204 199 196 199 198 194 193 194 195
308 299 285 283 278 263 254 267 315 324 332 340 336 340 58 51 37 53 7 310 323 328 320 293 295 319 292 237 254 224 174 221 202 161 179 178 162 203 201 173 174 57 341 287 301 319 319 297 284 277 265 250 234 287 320 346 14 57 48 58 74 353 358 11 314 311 213 253 257 246 191 178 229 252 222 218 226 221 207 203 196 191 194 194 192 191 191 192
304 295 288 282 274 265 262 275 297 304 319 333 343 47 84 68 57 36 334 323 321 307 297 284 309 319 324 339 321 293 117 85 287 183 177 153 160 221 244 206 185 117 195 238 266 338 313 300 302 307 281 247 176 214 292 324 352 33 141 119 117 117 72 266 270 286 256 267 270 256 241 259 271 271 229 215 219 217 209 203 192 186 188 188 189 188 188 192
310 301 296 288 281 276 269 269 276 286 309 334 14 70 63 70 89 54 20 300 268 301 308 311 321 327 352 26 17 10 53 36 1 17 61 47 95 256 287 243 206 132 128 165 175 223 288 300 298 302 291 292 196 219 219 198 252 253 174 138 138 156 148 199 223 211 240 269 291 295 206 210 239 257 225 213 229 222 202 188 172 176 181 174 175 181 185 193
315 306 301 293 289 282 256 235 249 270 302 357 57 66 64 77 295 4 4 283 281 317 322 339 354 3 14 19 17 19 50 36 3 19 43 35 49 350 342 310 247 126 106 98 238 236 286 274 278 299 299 332 9 294 253 170 236 259 158 116 142 188 169 205 207 187 186 225 293 294 233 214 219 264 273 204 242 207 167 155 149 156 159 156 169 180 183 190
315 311 305 291 283 258 198 197 214 229 280 53 62 53 69 123 246 89 272 281 312 322 329 351 15 38 18 2 5 4 18 35 9 16 33 47 63 13 348 324 337 17 80 134 225 329 -0 281 294 320 322 347 13 310 286 207 227 263 18 196 228 190 167 202 245 224 106 114 264 263 281 294 308 323 335 28 67 121 141 147 148 151 152 161 179 183 181 186
318 310 295 280 264 201 180 188 191 183 97 71 77 64 263 297 337 189 318 324 310 325 18 18 10 53 34 11 358 352 6 20 10 15 1 358 20 354 344 340 359 14 41 100 153 146 133 279 294 323 330 330 340 7 16 331 239 183 231 227 233 56 125 146 203 327 62 164 270 292 239 298 357 336 328 18 75 119 139 144 142 149 163 176 185 181 180 184
316 300 287 271 214 173 176 189 184 162 81 68 67 356 256 339 6 16 12 356 334 6 49 31 356 83 79 37 329 334 22 23 358 15 3 350 346 351 -0 345 355 4 6 45 52 331 115 296 294 337 353 330 346 25 18 347 340 322 260 238 105 73 321 328 164 162 137 201 286 315 278 260 167 228 291 337 155 151 143 144 148 163 176 182 185 180 177 180
326 313 313 253 163 158 176 187 174 112 60 54 27 313 246 16 17 19 22 20 23 33 36 351 357 30 47 53 358 328 43 80 9 29 23 -0 339 359 12 344 345 357 353 29 51 328 35 46 285 331 6 342 354 38 23 334 336 343 340 342 29 162 177 226 208 166 172 198 237 297 310 294 229 215 210 235 228 173 153 164 171 176 181 183 186 184 178 177
-0 22 312 200 142 143 163 170 132 63 73 126 187 247 275 46 23 10 21 33 43 50 27 343 5 20 353 15 20 348 16 79 42 53 13 357 333 345 4 357 352 353 358 35 44 354 20 51 288 311 353 -0 2 38 -0 310 318 338 343 336 322 308 193 234 252 176 149 156 174 183 298 277 254 227 200 213 222 192 173 175 179 179 180 182 185 187 184 177
42 31 290 182 145 143 146 141 48 67 144 264 210 228 292 78 35 3 19 41 50 55 34 5 9 30 8 2 14 7 -0 346 4 59 29 358 32 351 355 6 3 352 1 35 35 15 21 30 307 312 339 351 281 253 297 276 265 305 320 340 341 321 299 276 283 291 113 131 152 150 196 265 263 271 236 199 188 205 192 171 172 185 183 184 191 193 185 172
70 57 269 172 158 152 126 82 299 164 151 271 221 169 85 109 53 14 15 38 45 22 11 18 13 23 25 13 22 26 15 340 346 31 49 12 65 221 318 354 17 19 43 42 332 333 108 97 336 303 292 286 281 262 230 271 293 40 15 5 1 336 311 189 207 247 308 44 109 121 134 263 268 303 289 212 179 196 192 156 162 181 179 174 175 160 127 116
86 243 286 257 186 171 95 21 310 7 305 259 218 79 65 68 45 28 24 31 40 12 1 14 17 30 33 16 20 30 19 349 338 353 345 43 41 270 303 7 26 21 48 74 314 330 2 46 11 315 299 302 303 296 126 25 23 27 344 351 357 336 311 253 200 178 182 220 46 76 69 269 272 311 316 219 152 141 104 102 138 148 130 108 92 84 86 80
240 246 293 319 208 175 80 14 320 14 345 335 35 57 60 54 42 40 36 22 18 18 18 15 14 26 28 16 21 29 26 15 336 342 355 34 322 290 333 19 37 27 32 168 261 338 317 345 48 7 342 346 348 3 22 10 24 23 312 328 342 344 339 318 225 84 96 201 120 99 242 260 274 342 357 78 102 97 80 83 120 133 116 92 77 72 77 78
7 285 286 334 4 107 91 217 146 64 14 11 35 41 45 48 38 45 51 35 20 34 49 27 14 19 19 20 19 8 26 56 353 345 5 6 335 334 352 359 18 50 16 282 339 20 244 227 94 89 49 358 347 348 303 309 349 336 303 317 335 355 351 332 32 72 52 305 78 111 224 258 283 356 356 96 108 104 98 113 124 119 105 90 79 71 66 67
50 16 318 330 2 45 21 286 95 83 37 38 41 28 41 52 18 29 44 41 23 34 57 37 16 21 19 16 14 357 7 25 23 11 17 5 339 328 341 344 339 298 305 343 357 22 109 43 124 144 152 182 211 233 227 198 10 302 295 314 344 7 350 341 54 76 148 121 82 202 213 228 241 228 231 142 130 133 149 160 135 98 84 83 85 88 79 67
72 44 16 339 337 8 5 4 46 60 49 77 70 10 36 47 24 13 22 43 32 26 49 45 26 30 16 2 7 2 358 10 22 15 2 357 339 329 338 347 343 332 348 2 1 39 80 7 321 148 160 200 222 261 267 153 180 270 278 323 9 12 354 21 47 298 237 116 251 259 207 178 205 213 190 183 172 163 171 169 128 94 91 98 96 94 90 84
60 89 4 99 225 336 5 7 51 58 44 60 67 17 38 42 30 8 -0 48 55 32 33 35 24 30 23 17 32 17 359 9 15 356 338 343 350 342 339 336 339 357 16 7 350 65 100 256 292 353 352 336 333 317 313 302 251 269 300 6 21 19 13 25 5 291 188 126 228 262 210 176 192 218 200 191 179 166 162 150 127 116 118 121 107 100 100 102
45 11 326 8 16 253 343 6 64 67 42 42 50 26 46 48 26 1 352 33 53 33 40 46 22 20 27 41 75 53 6 3 345 328 325 337 340 339 333 316 317 357 18 -0 331 62 107 273 311 28 4 337 328 315 316 324 285 327 14 10 5 17 30 9 315 289 81 73 342 345 57 151 356 303 231 205 165 142 138 130 133 135 136 134 121 115 121 127
36 355 327 357 348 321 358 18 61 75 42 44 57 19 50 70 34 359 7 44 59 23 31 67 43 18 18 44 74 53 324 256 270 282 280 313 315 287 273 282 289 333 352 345 325 13 81 298 323 54 35 323 309 316 327 352 83 56 24 4 354 354 8 358 319 310 55 32 1 25 42 15 340 327 271 165 122 130 136 135 138 146 152 140 128 129 140 152
346 282 320 28 353 346 12 24 57 84 47 31 44 13 34 90 71 38 8 24 76 45 19 92 78 28 6 19 19 335 301 280 268 265 253 254 259 233 225 252 272 313 324 315 314 349 50 297 329 57 46 300 298 334 333 350 75 63 24 358 347 340 335 339 330 345 31 30 6 25 35 355 321 329 8 136 149 141 137 139 141 160 175 144 134 146 158 166
357 317 344 70 141 350 18 46 40 67 58 7 18 25 29 64 80 74 20 331 8 48 44 105 89 39 352 351 335 298 286 284 271 266 260 249 245 234 231 242 245 245 254 267 298 275 164 143 350 74 63 287 297 330 325 346 77 55 347 338 330 323 322 335 359 3 14 36 41 37 23 313 310 337 11 92 162 139 147 165 161 170 185 151 136 153 170 178